[Iaude] MPEC S62: 2016 SE2 [a=2.72,e=0.60,i=9.3,H=24.3]

mpec at si.edu mpec at si.edu
Thu Sep 29 15:17:44 EDT 2016


M.P.E.C. 2016-S62                                Issued 2016 Sept. 27, 20:24 UT
 
     The Minor Planet Electronic Circulars contain information on unusual
         minor planets and routine data on comets.  They are published
    on behalf of Division F of the International Astronomical Union by the
          Minor Planet Center, Smithsonian Astrophysical Observatory,
                          Cambridge, MA 02138, U.S.A.

             Prepared using the Tamkin Foundation Computer Network

                              MPC at CFA.HARVARD.EDU
            URL http://www.minorplanetcenter.net/    ISSN 1523-6714


                                   2016 SE2
 
Observations:
     K16S02E* C2016 09 25.09109 22 41 01.74 +26 01 13.0          19.9 VqES062G96
     K16S02E  C2016 09 25.09536 22 41 03.13 +26 01 51.9          20.5 VqES062G96
     K16S02E  C2016 09 25.09992 22 41 04.73 +26 02 33.2          20.6 VqES062G96
     K16S02E  C2016 09 25.10422 22 41 06.16 +26 03 10.0          20.7 VqES062G96
     K16S02E  C2016 09 25.14433 22 41 19.40 +26 09 08.2          20.8 VqES062G96
     K16S02E  C2016 09 25.14688 22 41 20.23 +26 09 30.8          20.6 VqES062G96
     K16S02E  C2016 09 25.14953 22 41 21.09 +26 09 53.2          20.5 VqES062G96
     K16S02E  C2016 09 25.15219 22 41 21.97 +26 10 17.3          20.2 VqES062G96
     K16S02E  C2016 09 26.14990 22 47 20.36 +28 31 15.1          20.9 VqES062G96
     K16S02E  C2016 09 26.15189 22 47 21.08 +28 31 31.5          21.0 VqES062G96
     K16S02E  C2016 09 26.15392 22 47 21.69 +28 31 49.8          20.8 VqES062G96
     K16S02E KC2016 09 27.08288722 52 56.40 +30 35 01.2          20.9 VuES062H21
     K16S02E KC2016 09 27.08952422 52 58.62 +30 35 53.3          21.2 VuES062H21
     K16S02E KC2016 09 27.09514222 53 00.50 +30 36 37.9          20.8 VuES062H21
 
Observer details:
G96 Mt. Lemmon Survey.  Observers D. C. Fuls, E. J. Christensen.  Measurers
    E. J. Christensen, D. C. Fuls, A. R. Gibbs, A. D. Grauer, J. A. Johnson,
    R. A. Kowalski, S. M. Larson, G. J. Leonard, R. G. Matheny, R. L. Seaman,
    F. C. Shelly.  1.5-m reflector + 10K CCD.
H21 Astronomical Research Observatory, Westfield.  Observer R. Holmes.
    Measurers S. Foglia, L. Buzzi, T. Linder, R. Holmes.  0.76-m f/3.0
    astrograph + CCD.
 
Orbital elements:
2016 SE2                                                 Earth MOID = 0.0772 AU
Epoch 2016 July 31.0 TT = JDT 2457600.5                 MPC
M 348.62575              (2000.0)            P               Q
n   0.21928912     Peri.   11.31403     +0.99804586     +0.04827413
a   2.7234829      Node   345.73810     -0.06202862     +0.84207086
e   0.6035190      Incl.    9.26765     +0.00754409     +0.53720227
P   4.49           H   24.3           G   0.15           U   8
Residuals in seconds of arc
160925 G96  0.1-  0.4-    160925 G96  0.1+  0.4+    160926 G96  0.3-  0.9+
160925 G96  0.6-  0.3+    160925 G96  0.0   0.7-    160927 H21  0.1-  0.2-
160925 G96  0.3+  0.8+    160925 G96  0.1+  0.1-    160927 H21  0.1+  0.2-
160925 G96  0.3+  0.8-    160926 G96  0.5-  0.2-    160927 H21  0.3+  0.3+
160925 G96  0.1+  0.4+    160926 G96  0.4+  0.4-

Ephemeris:
2016 SE2                 a,e,i = 2.72, 0.60, 9                   q = 1.0798
Date    TT    R. A. (2000) Decl.     Delta      r     Elong.  Phase     V
2016 08 28    20 41 19.7 -38 23 56   0.1368  1.1221   142.8    33.0    21.6
...
2016 09 12    21 30 22.4 -11 40 58   0.08932 1.0858   151.6    26.2    20.4
...
2016 09 20    22 11 17.8 +12 02 49   0.08465 1.0798   152.2    25.7    20.3
...
2016 09 26    22 46 22.9 +28 10 44   0.09375 1.0818   146.3    31.0    20.7
2016 09 27    22 52 23.1 +30 24 34   0.09616 1.0826   145.2    31.9    20.7
2016 09 28    22 58 23.8 +32 29 34   0.09879 1.0837   144.2    32.8    20.8
...
2016 10 04    23 33 51.9 +42 04 05   0.1182  1.0928   139.5    36.5    21.3
...
2016 10 12    00 16 24.7 +48 46 00   0.1507  1.1131   137.1    37.6    21.9
...
2016 10 27    01 13 45.4 +51 37 11   0.2235  1.1733   139.7    33.2    22.8

A. U. Tomatic                (C) Copyright 2016 MPC           M.P.E.C. 2016-S62




More information about the Iaude mailing list